Location: Utrecht
(52.0907°N, 5.1214°E)
Time: 02:44:47
(UTC+02:00)

KKS-1 - Pass Details

Date: 02 July 2022
Orbit: 634 x 649 km, 98.2° (Epoch: 15 August)

Event Time Altitude Azimuth Distance (km) Brightness Sun altitude
Rises 01:19:24 0° 5° (N) 2,981 ? -14.7°
Reaches altitude 10° 01:22:07 10° 348° (NNW) 2,065 ? -14.7°
Maximum altitude 01:25:19 20° 302° (WNW) 1,518 ? -14.7°
Drops below altitude 10° 01:28:31 10° 257° (WSW) 2,050 ? -14.8°
Enters shadow 01:31:10 - 240° (WSW) 2,940 ? -14.8°
